Location: ???????
(55.3754°N, 39.3545°E)
Time: 07:23:46
(UTC+00:00)

Cosmos 2297 - Pass Details

Date: 14 April 2026
Orbit: 833 x 859 km, 71.0° (Epoch: 13 May)

Event Time Altitude Azimuth Distance (km) Brightness Sun altitude
Rises 20:06:12 0° 324° (NW) 3,445 8.2 -23.0°
Reaches altitude 10° 20:08:44 10° 319° (NW) 2,506 7.1 -23.2°
Maximum altitude 20:14:14 47° 247° (WSW) 1,125 4.2 -23.4°
Enters shadow 20:15:26 41° 213° (SSW) 1,228 4.2 -23.5°
